Location: Bon Acre
(42.6442°N, 73.5758°W)
Time: 09:25:06
(UTC+00:00)

Meteor 2-20 Rocket - Pass Details

Date: 14 December 2025
Orbit: 871 x 1024 km, 82.5° (Epoch: 21 January)

Event Time Altitude Azimuth Distance (km) Brightness Sun altitude
Rises 22:50:53 0° 184° (S) 3,675 7.8 -15.8°
Reaches altitude 10° 22:53:26 10° 184° (S) 2,710 7.1 -16.2°
Maximum altitude 22:59:38 85° 97° (E) 955 4.4 -17.3°
Drops below altitude 10° 23:05:38 10° 9° (N) 2,621 6.5 -18.4°
Sets 23:08:04 0° 9° (N) 3,547 7.2 -18.8°
